FW2418 Weather Reports


time (UTC)temp
C
wind
direction
speed
KPH
gust
KPH
rain 1hr
cm
rain 24hr
cm
rain mn
cm
humidity
%
barometer
mb
20260905202127 25 97 0.0 6.4 0.10 0.74 0.13 94 1010.6
20260905201126 25 306 1.6 1.6 0.10 0.74 0.13 95 1011.0
20260905200054 25 4 0.0 1.6 0.10 0.74 0.13 95 1010.6
20260905195053 25 155 0.0 3.2 0.10 0.74 0.13 94 1011.0
20260905194021 25 131 1.6 8.0 0.08 0.71 0.10 92 1011.3
20260905193020 26 267 1.6 8.0 0.05 0.69 0.08 86 1011.3
20260905192019 28 270 1.6 8.0 0.00 0.64 0.03 82 1011.3
20260905191019 30 326 3.2 14.5 0.00 0.64 0.03 76 1010.6
20260905190018 30 309 3.2 16.1 0.00 0.64 0.03 77 1010.0
20260905185017 30 344 3.2 16.1 0.00 0.64 0.03 75 1010.3
20260905184016 32 307 3.2 16.1 0.00 0.64 0.03 69 1010.3
20260905183015 34 270 4.8 9.7 0.00 0.64 0.03 63 1010.3
20260905182014 34 261 1.6 11.3 0.00 0.64 0.03 66 1010.3
20260905181013 35 200 3.2 11.3 0.00 0.64 0.03 62 1010.3
20260905175941 33 257 1.6 4.8 0.00 0.64 0.03 67 1010.0
20260905174937 33 299 1.6 4.8 0.00 0.64 0.03 67 1010.3
20260905173937 33 232 1.6 4.8 0.00 0.64 0.03 67 1010.3
20260905172936 33 161 1.6 4.8 0.00 0.64 0.03 67 1010.7
20260905171935 33 173 1.6 4.8 0.00 0.64 0.03 70 1010.7
20260905170934 32 249 3.2 4.8 0.00 0.64 0.03 68 1011.0
20260905165933 32 289 1.6 4.8 0.00 0.64 0.03 72 1011.3
20260905164901 32 256 1.6 3.2 0.00 0.64 0.03 73 1011.3
20260905163900 32 293 1.6 3.2 0.00 0.64 0.03 76 1011.7
20260905162859 31 288 1.6 4.8 0.00 0.64 0.03 75 1011.7
20260905161858 31 289 1.6 4.8 0.00 0.64 0.03 78 1012.0
20260905160826 32 288 1.6 4.8 0.00 0.64 0.03 77 1012.0
20260905155825 32 245 1.6 3.2 0.00 0.64 0.03 80 1012.0
20260905154824 31 250 1.6 3.2 0.00 0.64 0.03 82 1012.3
20260905153823 31 231 1.6 3.2 0.00 0.64 0.03 83 1012.3
20260905152751 30 281 1.6 3.2 0.00 0.64 0.03 86 1012.7
20260905151750 30 273 1.6 3.2 0.00 0.64 0.03 87 1012.7
20260905150749 30 279 1.6 1.6 0.00 0.64 0.03 88 1012.7
20260905145717 29 266 1.6 1.6 0.00 0.64 0.03 91 1012.7
20260905144716 28 313 1.6 1.6 0.00 0.64 0.03 94 1012.7
20260905143716 27 222 0.0 1.6 0.00 0.64 0.03 95 1012.7
20260905142715 27 222 0.0 1.6 0.00 0.64 0.03 96 1012.3
20260905141714 26 265 0.0 1.6 0.00 0.64 0.03 96 1012.3
20260905140713 26 264 0.0 1.6 0.00 0.64 0.03 97 1012.3
20260905135712 26 259 0.0 1.6 0.00 0.64 0.03 98 1012.3
20260905134711 26 226 0.0 0.0 0.00 0.64 0.03 99 1012.3
20260905133710 25 226 0.0 1.6 0.00 0.64 0.03 100 1012.3
20260905132709 25 226 0.0 1.6 0.00 0.64 0.03 100 1012.3
20260905131708 25 127 0.0 0.0 0.00 0.64 0.03 100 1012.3
20260905130708 25 127 0.0 0.0 0.00 0.64 0.03 100 1012.3
20260905125707 25 127 0.0 0.0 0.00 0.64 0.03 100 1012.3
20260905124706 25 127 0.0 0.0 0.00 0.64 0.03 100 1012.3
20260905123634 25 127 0.0 0.0 0.00 0.64 0.03 100 1011.9
20260905122602 25 127 0.0 0.0 0.00 0.64 0.03 100 1011.9
20260905121601 25 127 0.0 0.0 0.00 0.64 0.03 100 1011.9
20260905120600 24 127 0.0 0.0 0.00 0.64 0.03 100 1011.9
20260905115559 24 127 0.0 0.0 0.00 0.64 0.03 100 1011.9
20260905114558 24 127 0.0 0.0 0.00 0.64 0.03 100 1011.6
20260905113557 24 127 0.0 0.0 0.00 0.64 0.03 100 1011.6
20260905112556 24 127 0.0 0.0 0.00 0.64 0.03 100 1011.6
20260905111555 24 127 0.0 0.0 0.00 0.64 0.03 100 1011.6
20260905110554 24 127 0.0 0.0 0.00 0.64 0.03 100 1011.6
20260905105522 24 127 0.0 0.0 0.00 0.64 0.03 100 1011.3
20260905104522 24 127 0.0 0.0 0.00 0.64 0.03 100 1011.3
20260905103521 24 127 0.0 0.0 0.00 0.64 0.03 100 1010.9
20260905102520 23 127 0.0 0.0 0.00 0.64 0.03 100 1010.9
20260905101519 23 127 0.0 0.0 0.00 0.64 0.03 100 1010.9
20260905100518 23 127 0.0 0.0 0.00 0.64 0.03 100 1010.9
20260905095517 23 127 0.0 0.0 0.00 0.64 0.03 100 1010.9
20260905094516 23 127 0.0 0.0 0.03 0.64 0.03 100 1010.9
20260905093516 23 127 0.0 0.0 0.03 0.64 0.03 100 1010.9
20260905092515 23 127 0.0 0.0 0.03 0.64 0.03 100 1010.9
20260905091514 23 127 0.0 0.0 0.03 0.64 0.03 99 1011.3
20260905090514 23 127 0.0 0.0 0.03 0.64 0.03 99 1011.3
20260905085513 23 127 0.0 0.0 0.03 0.64 0.03 99 1011.3
20260905084441 23 127 0.0 0.0 0.00 0.61 0.00 99 1011.3
20260905083440 23 127 0.0 0.0 0.00 0.61 0.00 99 1011.3
20260905082408 23 127 0.0 0.0 0.00 0.61 0.00 99 1011.3
20260905081407 23 127 0.0 0.0 0.00 0.61 0.00 99 1011.3
20260905080406 23 127 0.0 0.0 0.00 0.61 0.00 99 1011.3
20260905075405 23 127 0.0 0.0 0.00 0.61 0.00 99 1011.3
20260905074404 23 127 0.0 0.0 0.00 0.61 0.00 99 1011.3
20260905073301 23 127 0.0 0.0 0.00 0.61 0.00 99 1011.0
20260905072300 23 127 0.0 0.0 0.00 0.61 0.00 99 1011.0
20260905071259 23 127 0.0 0.0 0.00 0.61 0.00 99 1011.0
20260905070259 23 127 0.0 0.0 0.00 0.61 0.00 99 1011.3
20260905065258 23 127 0.0 0.0 0.00 0.61 0.00 99 1011.3
20260905064226 24 127 0.0 0.0 0.00 0.61 0.00 99 1011.7
20260905063225 24 127 0.0 0.0 0.00 0.61 0.00 99 1011.7
20260905062224 24 127 0.0 0.0 0.00 0.61 0.00 99 1011.7
20260905061223 24 127 0.0 0.0 0.00 0.61 0.00 99 1012.0
20260905060222 24 127 0.0 0.0 0.00 0.61 0.00 99 1012.0
20260905055221 24 127 0.0 0.0 0.00 0.61 0.00 99 1012.0
20260905054150 24 127 0.0 0.0 0.00 0.61 0.00 99 1012.0
20260905053149 24 127 0.0 0.0 0.00 0.61 0.00 99 1012.4
20260905052046 24 127 0.0 0.0 0.00 0.61 0.00 99 1012.4
20260905051045 24 127 0.0 0.0 0.00 0.61 0.00 99 1012.4
20260905050044 24 127 0.0 1.6 0.00 0.61 0.00 99 1012.4
20260905045044 24 127 0.0 1.6 0.00 0.61 0.00 99 1012.7
20260905044043 24 127 0.0 0.0 0.00 0.61 0.00 99 1012.7
20260905043042 24 127 0.0 0.0 0.00 0.61 0.00 99 1012.7
20260905042041 24 127 0.0 0.0 0.00 0.61 0.00 99 1012.7
20260905041040 24 127 0.0 0.0 0.00 0.61 0.00 99 1012.7
20260905040008 24 127 0.0 0.0 0.00 0.61 0.61 99 1012.7
20260905034905 24 127 0.0 0.0 0.00 0.61 0.61 99 1012.7
20260905033904 24 127 0.0 0.0 0.00 0.61 0.61 99 1012.7
20260905032903 23 127 0.0 1.6 0.00 0.61 0.61 98 1012.7
20260905031903 23 127 0.0 1.6 0.00 0.61 0.61 99 1012.7
20260905030902 23 127 0.0 1.6 0.00 0.61 0.61 98 1013.0
20260905025901 23 144 0.0 0.0 0.00 0.61 0.61 98 1013.0
20260905024829 23 143 0.0 0.0 0.00 0.61 0.61 98 1013.0
20260905023828 23 144 0.0 0.0 0.00 0.61 0.61 98 1013.0
20260905022756 23 144 0.0 1.6 0.00 0.61 0.61 98 1013.0
20260905021755 23 143 0.0 1.6 0.00 0.61 0.61 98 1013.0
20260905020754 23 142 1.6 3.2 0.03 0.61 0.61 98 1013.0
20260905015753 24 356 1.6 3.2 0.05 0.61 0.61 98 1013.0
20260905014753 24 30 1.6 3.2 0.10 0.61 0.61 98 1013.0
20260905013752 24 101 1.6 3.2 0.15 0.61 0.61 98 1013.0
20260905012720 24 85 0.0 1.6 0.20 0.61 0.61 98 1013.0
20260905011648 24 18 0.0 3.2 0.23 0.61 0.61 98 1012.7
20260905010616 24 50 1.6 3.2 0.25 0.58 0.58 98 1012.7
20260905005615 24 20 1.6 3.2 0.28 0.56 0.56 98 1012.7
20260905004614 24 66 1.6 3.2 0.25 0.51 0.51 98 1012.7
20260905003543 24 124 0.0 1.6 0.18 0.43 0.43 98 1012.3
20260905002542 24 124 0.0 0.0 0.18 0.41 0.41 98 1012.3
20260905001510 24 124 0.0 0.0 0.13 0.36 0.36 97 1012.3
20260905000509 24 128 0.0 0.0 0.10 0.33 0.33 97 1012.3
20260904235508 24 129 0.0 1.6 0.05 0.28 0.28 97 1012.6
20260904234507 24 148 1.6 1.6 0.03 0.25 0.25 97 1012.3
20260904233506 24 121 0.0 1.6 0.05 0.25 0.25 96 1012.3
20260904232506 24 169 0.0 4.8 0.05 0.23 0.23 96 1012.6
20260904231433 25 114 3.2 6.4 0.08 0.23 0.23 96 1013.0
20260904230433 25 220 1.6 6.4 0.08 0.23 0.23 97 1013.0
20260904225432 25 119 1.6 4.8 0.08 0.23 0.23 97 1013.0
20260904224431 25 110 1.6 1.6 0.10 0.23 0.23 97 1013.0
20260904223430 25 115 0.0 1.6 0.15 0.20 0.20 97 1013.0
20260904222429 25 94 1.6 1.6 0.18 0.18 0.18 96 1013.0
20260904221428 25 131 1.6 3.2 0.15 0.15 0.15 96 1012.7
20260904220427 25 120 1.6 4.8 0.15 0.15 0.15 95 1012.0
20260904215356 25 78 1.6 4.8 0.15 0.15 0.15 94 1011.6
20260904214355 26 103 1.6 8.0 0.13 0.13 0.13 93 1011.3
20260904213354 26 311 0.0 11.3 0.05 0.05 0.05 89 1011.3
20260904212353 27 278 3.2 14.5 0.00 0.00 0.00 81 1010.3
20260904211352 30 265 6.4 14.5 0.00 0.00 0.00 74 1011.0
20260904210352 32 197 3.2 8.0 0.00 0.00 0.00 75 1011.0
20260904205351 33 61 3.2 8.0 0.00 0.00 0.00 71 1010.7
20260904204350 33 132 0.0 8.0 0.00 0.00 0.00 61 1010.7
20260904203349 33 168 1.6 12.9 0.00 0.00 0.00 63 1010.7
20260904202348 34 175 6.4 12.9 0.00 0.00 0.00 61 1010.7